Location: ?????? ??????
(44.3742°N, 135.2221°E)
Time: 20:35:55
(UTC+00:00)

Meteor 1-22 Rocket - Pass Details

Date: 10 August 2025
Orbit: 789 x 935 km, 81.2° (Epoch: 15 December)

Event Time Altitude Azimuth Distance (km) Brightness Sun altitude
Exits shadow 17:40:07 16° 162° (SSE) 2,154 6.0 -20.6°
Maximum altitude 17:44:35 48° 93° (E) 1,162 5.1 -20.1°
Drops below altitude 10° 17:50:18 10° 21° (NNE) 2,625 7.8 -19.4°
Sets 17:52:54 0° 16° (NNE) 3,585 8.6 -19.1°
